This is the latest recevied weather packets stored in our database for station/object KE1THD. If no packets are shown the sender has not sent any weather packets the latest 10 day(s).
| Time | Temp. | Humidity | Pressure | Rain* | Wind** | Luminosity | Snow |
|---|---|---|---|---|---|---|---|
| 1777914761 | 26.11° C | 41% | 1000.1 hPa | 0 mm | - | 691 W/m² | - |
| 1777914458 | 26.67° C | 40% | 1000.3 hPa | 0 mm | - | 692 W/m² | - |
| 1777914155 | 26.67° C | 41% | 1000.3 hPa | 0 mm | - | 707 W/m² | - |
| 1777913851 | 26.67° C | 43% | 1000.3 hPa | 0 mm | - | 736 W/m² | - |
| 1777913548 | 25.56° C | 41% | 1000.5 hPa | 0 mm | - | 757 W/m² | - |
| 1777913244 | 25° C | 42% | 1000.4 hPa | 0 mm | - | 757 W/m² | - |
| 1777912942 | 25° C | 42% | 1000.6 hPa | 0 mm | - | 759 W/m² | - |
| 1777912637 | 25° C | 41% | 1000.5 hPa | 0 mm | - | 756 W/m² | - |
| 1777912333 | 25° C | 44% | 1000.6 hPa | 0 mm | - | 747 W/m² | - |
| 1777912029 | 26.11° C | 42% | 1000.8 hPa | 0 mm | - | 759 W/m² | - |
| 1777911725 | 26.11° C | 41% | 1000.7 hPa | 0 mm | - | 776 W/m² | - |
| 1777911422 | 25.56° C | 42% | 1000.9 hPa | 0 mm | - | 768 W/m² | - |
| 1777911120 | 25° C | 41% | 1000.9 hPa | 0 mm | - | 764 W/m² | - |
| 1777910817 | 25° C | 42% | 1000.8 hPa | 0 mm | - | 760 W/m² | - |
| 1777910513 | 25° C | 43% | 1001 hPa | 0 mm | - | 748 W/m² | - |
| 1777910210 | 24.44° C | 43% | 1001 hPa | 0 mm | - | 774 W/m² | - |
| 1777909907 | 23.89° C | 43% | 1001.3 hPa | 0 mm | - | 792 W/m² | - |
| 1777909604 | 23.89° C | 43% | 1001.1 hPa | 0 mm | - | 788 W/m² | - |
| 1777909302 | 23.89° C | 42% | 1001.5 hPa | 0 mm | - | 778 W/m² | - |
| 1777908999 | 23.33° C | 43% | 1001.4 hPa | 0 mm | - | 766 W/m² | - |
| 1777908697 | 23.33° C | 44% | 1001.4 hPa | 0 mm | - | 722 W/m² | - |
| 1777908394 | 22.78° C | 44% | 1001.6 hPa | 0 mm | - | 656 W/m² | - |
| 1777908090 | 22.78° C | 43% | 1001.4 hPa | 0 mm | - | 620 W/m² | - |
| 1777907786 | 22.78° C | 44% | 1001.6 hPa | 0 mm | - | 649 W/m² | - |
| 1777907481 | 22.78° C | 44% | 1001.6 hPa | 0 mm | - | 667 W/m² | - |
* Rain latest hour (hover to see other rain measurements)
** Current wind speed in m/s (hover to see current wind gust speed)